Weather History for KACV - May, 2013

Change the Weather History Date:

Friday, May 10, 2013

  Actual Average Record
Temperature  
Mean Temperature 51 °F -  
Max Temperature 54 °F 57 °F 66 °F (2000)
Min Temperature 48 °F 42 °F 34 °F (2002)
Degree Days  
Heating Degree Days 14    
Growing Degree Days 1 (Base 50)    
Moisture  
Dew Point 48 °F    
Average Humidity 93    
Maximum Humidity 100    
Minimum Humidity 80    
Precipitation  
Precipitation 0.00 in - - ()
Sea Level Pressure  
Sea Level Pressure 30.25 in    
Wind  
Wind Speed 5 mph (NW)    
Max Wind Speed 13 mph    
Max Gust Speed -    
Visibility 9 miles    
Events      
Averages and records for this station are not official NWS values.
T = Trace of Precipitation, MM = Missing Value Source: NWS Daily Summary

Daily Weather History Graph

Daily Weather History Graph

Search for Another Location

Airport or City:

Trip Planner

Search our weather history database for the weather conditions in past years. The results will help you decide how hot, cold, wet, or windy it might be!

Date:

Astronomy

May. 10, 2013 Rise Set
Actual Time 6:03 AM PDT 8:22 PM PDT
Civil Twilight 5:32 AM PDT 8:53 PM PDT
Nautical Twilight 4:54 AM PDT 9:31 PM PDT
Astronomical Twilight 4:12 AM PDT 10:14 PM PDT
Moon 6:31 AM PDT (5/10) 9:17 PM PDT (5/10)
Length of Visible Light 15h 21m
Length of Day
14h 19m
New Moon, 1% of the Moon is Illuminated
May 10
New Moon
May 17
First Quarter
May 24
Full
May 31
Last Quarter
Jun 8
New

Hourly Weather History & Observations

Time (PDT) Temp. Dew Point Humidity Pressure Visibility Wind Dir Wind Speed Gust Speed Precip Events Conditions
12:01 AM 48.2 °F 48.2 °F 100% 30.24 in 4.0 mi NNW 3.5 mph - N/A   Overcast
12:46 AM 48.2 °F 48.2 °F 100% 30.25 in 4.0 mi NNW 4.6 mph - N/A   Overcast
1:42 AM 48.2 °F 48.2 °F 100% 30.25 in 7.0 mi Calm Calm - N/A   Overcast
1:53 AM 48.9 °F 48.9 °F 100% 30.27 in 8.0 mi Calm Calm - N/A   Overcast
2:53 AM 48.9 °F 48.9 °F 100% 30.24 in 7.0 mi NNW 3.5 mph - N/A   Overcast
3:10 AM 48.2 °F 48.2 °F 100% 30.22 in 5.0 mi NNW 5.8 mph - N/A   Overcast
3:33 AM 48.2 °F 48.2 °F 100% 30.22 in 5.0 mi North 3.5 mph - N/A   Overcast
4:26 AM 48.2 °F 48.2 °F 100% 30.22 in 8.0 mi NNW 5.8 mph - N/A   Overcast
6:11 AM 48.2 °F 48.2 °F 100% 30.23 in 5.0 mi NNW 3.5 mph - N/A   Overcast
6:53 AM 48.0 °F 48.0 °F 100% 30.24 in 7.0 mi NNW 4.6 mph - N/A   Overcast
7:53 AM 48.9 °F 48.0 °F 97% 30.25 in 9.0 mi NNW 4.6 mph - N/A   Overcast
8:53 AM 48.9 °F 48.0 °F 97% 30.27 in 8.0 mi NNW 4.6 mph - N/A   Overcast
10:53 AM 50.0 °F 48.0 °F 93% 30.26 in 10.0 mi NW 6.9 mph - N/A   Overcast
11:43 AM 50.0 °F 48.2 °F 94% 30.25 in 10.0 mi NNW 8.1 mph - N/A   Overcast
11:53 AM 50.0 °F 48.0 °F 93% 30.27 in 10.0 mi NNW 8.1 mph - N/A   Overcast
12:53 PM 51.1 °F 48.9 °F 92% 30.25 in 10.0 mi NW 4.6 mph - N/A   Overcast
1:20 PM 51.8 °F 48.2 °F 88% 30.24 in 10.0 mi WNW 11.5 mph - N/A   Overcast
1:42 PM 51.8 °F 48.2 °F 88% 30.25 in 10.0 mi NW 10.4 mph - N/A   Overcast
1:53 PM 52.0 °F 48.9 °F 89% 30.27 in 10.0 mi NW 11.5 mph - N/A   Overcast
2:31 PM 51.8 °F 48.2 °F 88% 30.26 in 10.0 mi NNW 10.4 mph - N/A   Overcast
2:53 PM 51.1 °F 48.0 °F 89% 30.29 in 10.0 mi NNW 9.2 mph - N/A   Overcast
3:34 PM 51.8 °F 48.2 °F 88% 30.26 in 10.0 mi NW 10.4 mph - N/A   Overcast
3:53 PM 54.0 °F 48.0 °F 80% 30.26 in 10.0 mi NW 9.2 mph - N/A   Mostly Cloudy
4:00 PM 53.6 °F 48.2 °F 82% 30.25 in 10.0 mi NW 9.2 mph - N/A   Mostly Cloudy
4:13 PM 53.6 °F 48.2 °F 82% 30.25 in 10.0 mi NW 8.1 mph - N/A   Partly Cloudy
4:39 PM 53.6 °F 48.2 °F 82% 30.25 in 10.0 mi NW 6.9 mph - N/A   Mostly Cloudy
4:53 PM 52.0 °F 48.0 °F 86% 30.27 in 10.0 mi NW 9.2 mph - N/A   Mostly Cloudy
5:53 PM 51.1 °F 48.0 °F 89% 30.29 in 10.0 mi NW 12.7 mph - N/A   Overcast
6:53 PM 51.1 °F 48.0 °F 89% 30.28 in 10.0 mi NW 5.8 mph - N/A   Overcast
7:53 PM 50.0 °F 48.0 °F 93% 30.27 in 10.0 mi Calm Calm - N/A   Overcast
8:53 PM 50.0 °F 48.0 °F 93% 30.27 in 10.0 mi Calm Calm - N/A   Overcast
9:51 PM 48.2 °F 48.2 °F 100% 30.24 in 10.0 mi Calm Calm - N/A   Scattered Clouds
9:53 PM 48.9 °F 48.0 °F 97% 30.26 in 10.0 mi Calm Calm - N/A   Partly Cloudy
11:05 PM 48.2 °F 48.2 °F 100% 30.25 in 10.0 mi North 4.6 mph - N/A   Mostly Cloudy
11:53 PM 50.0 °F 48.9 °F 96% 30.26 in 10.0 mi NNW 3.5 mph - N/A   Overcast